| time (UTC) | temp F | wind direction | speed MPH | gust MPH | rain 1hr in | rain 24hr in | rain mn in | humidity % | barometer mb |
| 20260906194533 | 67 | 48 | 1.0 | 5.0 | 0.08 | 0.51 | 0.51 | 91 | 1014.1 |
| 20260906193030 | 66 | 149 | 4.0 | 7.0 | 0.11 | 0.50 | 0.50 | 91 | 1014.3 |
| 20260906191529 | 66 | 109 | 0.0 | 5.0 | 0.18 | 0.50 | 0.50 | 91 | 1014.9 |
| 20260906190028 | 66 | 29 | 3.0 | 7.0 | 0.24 | 0.47 | 0.47 | 90 | 1014.9 |
| 20260906184528 | 65 | 301 | 0.0 | 0.0 | 0.27 | 0.43 | 0.43 | 89 | 1015.4 |
| 20260906183025 | 65 | 301 | 0.0 | 3.0 | 0.28 | 0.39 | 0.39 | 89 | 1015.1 |
| 20260906181525 | 66 | 20 | 0.0 | 3.0 | 0.27 | 0.32 | 0.32 | 89 | 1015.1 |
| 20260906180019 | 66 | 22 | 1.0 | 3.0 | 0.18 | 0.22 | 0.22 | 87 | 1015.0 |
| 20260906174515 | 67 | 25 | 0.0 | 2.0 | 0.11 | 0.15 | 0.15 | 85 | 1014.7 |
| 20260906173011 | 68 | 326 | 2.0 | 5.0 | 0.07 | 0.10 | 0.10 | 83 | 1014.5 |
| 20260906171509 | 69 | 293 | 2.0 | 5.0 | 0.02 | 0.05 | 0.05 | 81 | 1014.4 |
| 20260906170008 | 70 | 302 | 2.0 | 4.0 | 0.01 | 0.04 | 0.04 | 78 | 1013.7 |
| 20260906164507 | 70 | 246 | 0.0 | 1.0 | 0.01 | 0.04 | 0.04 | 77 | 1013.3 |
| 20260906163002 | 70 | 246 | 0.0 | 2.0 | 0.01 | 0.03 | 0.03 | 78 | 1013.2 |
| 20260906161603 | 70 | 221 | 1.0 | 3.0 | 0.01 | 0.03 | 0.03 | 77 | 1013.1 |
| 20260906160059 | 69 | 212 | 1.0 | 3.0 | 0.01 | 0.03 | 0.03 | 80 | 1013.1 |
| 20260906154557 | 69 | 131 | 2.0 | 4.0 | 0.02 | 0.03 | 0.03 | 81 | 1012.6 |
| 20260906153056 | 69 | 132 | 1.0 | 4.0 | 0.02 | 0.02 | 0.02 | 81 | 1012.7 |
| 20260906151608 | 69 | 122 | 1.0 | 2.0 | 0.02 | 0.02 | 0.02 | 81 | 1012.8 |
| 20260906150057 | 69 | 295 | 0.0 | 0.0 | 0.02 | 0.02 | 0.02 | 79 | 1012.9 |
| 20260906144548 | 70 | 295 | 0.0 | 1.0 | 0.01 | 0.01 | 0.01 | 74 | 1012.9 |
| 20260906143100 | 71 | 297 | 0.0 | 5.0 | 0.00 | 0.00 | 0.00 | 69 | 1012.8 |
| 20260906141542 | 71 | 300 | 3.0 | 6.0 | 0.00 | 0.00 | 0.00 | 65 | 1012.6 |
| 20260906140046 | 71 | 298 | 2.0 | 8.0 | 0.00 | 0.00 | 0.00 | 63 | 1012.6 |
| 20260906134550 | 70 | 309 | 4.0 | 10.0 | 0.00 | 0.00 | 0.00 | 61 | 1012.5 |
| 20260906133034 | 70 | 307 | 4.0 | 10.0 | 0.00 | 0.00 | 0.00 | 62 | 1012.0 |
| 20260906131531 | 73 | 297 | 6.0 | 13.0 | 0.00 | 0.00 | 0.00 | 54 | 1011.5 |
| 20260906130030 | 74 | 60 | 1.0 | 1.0 | 0.00 | 0.00 | 0.00 | 46 | 1011.4 |
| 20260906124538 | 74 | 68 | 0.0 | 0.0 | 0.00 | 0.00 | 0.00 | 46 | 1010.9 |
| 20260906123056 | 73 | 68 | 0.0 | 0.0 | 0.00 | 0.00 | 0.00 | 47 | 1010.7 |
| 20260906121525 | 74 | 68 | 0.0 | 0.0 | 0.00 | 0.00 | 0.00 | 46 | 1010.8 |
| 20260906120024 | 74 | 68 | 0.0 | 0.0 | 0.00 | 0.00 | 0.00 | 42 | 1010.8 |
| 20260906114523 | 74 | 68 | 0.0 | 0.0 | 0.00 | 0.00 | 0.00 | 46 | 1010.9 |
| 20260906113023 | 74 | 68 | 0.0 | 0.0 | 0.00 | 0.00 | 0.00 | 45 | 1010.9 |
| 20260906111528 | 74 | 68 | 0.0 | 1.0 | 0.00 | 0.00 | 0.00 | 46 | 1011.0 |
| 20260906110020 | 73 | 67 | 0.0 | 0.0 | 0.00 | 0.00 | 0.00 | 46 | 1010.9 |
| 20260906104520 | 73 | 66 | 0.0 | 0.0 | 0.00 | 0.00 | 0.00 | 47 | 1010.9 |
| 20260906103019 | 73 | 68 | 0.0 | 0.0 | 0.00 | 0.00 | 0.00 | 46 | 1010.9 |
| 20260906101517 | 73 | 68 | 0.0 | 0.0 | 0.00 | 0.00 | 0.00 | 47 | 1011.1 |
| 20260906100016 | 73 | 68 | 0.0 | 0.0 | 0.00 | 0.00 | 0.00 | 46 | 1011.0 |
| 20260906094516 | 74 | 68 | 0.0 | 1.0 | 0.00 | 0.00 | 0.00 | 46 | 1011.2 |
| 20260906093019 | 74 | 68 | 0.0 | 0.0 | 0.00 | 0.00 | 0.00 | 44 | 1011.2 |
| 20260906091515 | 73 | 67 | 0.0 | 0.0 | 0.00 | 0.00 | 0.00 | 44 | 1011.0 |
| 20260906090011 | 73 | 68 | 0.0 | 0.0 | 0.00 | 0.00 | 0.00 | 45 | 1011.4 |
| 20260906084509 | 74 | 68 | 0.0 | 0.0 | 0.00 | 0.00 | 0.00 | 44 | 1011.2 |
| 20260906083012 | 75 | 66 | 0.0 | 1.0 | 0.00 | 0.00 | 0.00 | 42 | 1011.3 |
| 20260906081510 | 73 | 77 | 0.0 | 0.0 | 0.00 | 0.00 | 0.00 | 45 | 1011.4 |
| 20260906080011 | 74 | 78 | 0.0 | 0.0 | 0.00 | 0.00 | 0.00 | 43 | 1011.3 |
| 20260906074501 | 74 | 77 | 0.0 | 0.0 | 0.00 | 0.00 | 0.00 | 42 | 1011.3 |
| 20260906073000 | 74 | 77 | 0.0 | 0.0 | 0.00 | 0.00 | 0.00 | 43 | 1011.4 |
| 20260906071557 | 76 | 78 | 0.0 | 1.0 | 0.00 | 0.00 | 0.00 | 41 | 1011.3 |
| 20260906070054 | 75 | 301 | 0.0 | 0.0 | 0.00 | 0.00 | 0.00 | 42 | 1011.3 |
| 20260906064554 | 76 | 301 | 0.0 | 1.0 | 0.00 | 0.00 | 0.00 | 39 | 1011.3 |
| 20260906063055 | 77 | 321 | 1.0 | 2.0 | 0.00 | 0.00 | 0.00 | 37 | 1011.2 |
| 20260906061552 | 77 | 79 | 0.0 | 1.0 | 0.00 | 0.00 | 0.00 | 36 | 1011.3 |
| 20260906060050 | 79 | 316 | 0.0 | 1.0 | 0.00 | 0.00 | 0.00 | 33 | 1011.4 |
| 20260906054549 | 79 | 239 | 0.0 | 5.0 | 0.00 | 0.00 | 0.00 | 34 | 1011.4 |
| 20260906053101 | 79 | 155 | 1.0 | 4.0 | 0.00 | 0.00 | 0.00 | 31 | 1011.4 |
| 20260906051548 | 81 | 120 | 0.0 | 2.0 | 0.00 | 0.00 | 0.00 | 30 | 1011.3 |
| 20260906050053 | 79 | 288 | 0.0 | 2.0 | 0.00 | 0.00 | 0.00 | 31 | 1011.4 |
| 20260906044547 | 82 | 129 | 0.0 | 2.0 | 0.00 | 0.00 | 0.00 | 29 | 1011.4 |
| 20260906043051 | 81 | 99 | 0.0 | 1.0 | 0.00 | 0.00 | 0.00 | 30 | 1011.4 |
| 20260906041547 | 84 | 124 | 1.0 | 2.0 | 0.00 | 0.00 | 0.00 | 27 | 1011.3 |
| 20260906040045 | 83 | 51 | 0.0 | 2.0 | 0.00 | 0.00 | 0.00 | 28 | 1011.1 |
| 20260906034544 | 82 | 278 | 2.0 | 8.0 | 0.00 | 0.00 | 0.00 | 29 | 1011.0 |
| 20260906033057 | 82 | 349 | 2.0 | 7.0 | 0.00 | 0.00 | 0.00 | 28 | 1010.9 |
| 20260906031542 | 82 | 235 | 4.0 | 10.0 | 0.00 | 0.00 | 0.00 | 29 | 1010.7 |
| 20260906030045 | 83 | 292 | 6.0 | 9.0 | 0.00 | 0.00 | 0.00 | 30 | 1010.5 |
| 20260906024546 | 83 | 297 | 4.0 | 8.0 | 0.00 | 0.00 | 0.00 | 30 | 1010.4 |
| 20260906023050 | 84 | 255 | 6.0 | 11.0 | 0.00 | 0.00 | 0.00 | 30 | 1010.5 |
| 20260906021540 | 85 | 291 | 4.0 | 10.0 | 0.00 | 0.00 | 0.00 | 30 | 1010.4 |
| 20260906020052 | 86 | 347 | 4.0 | 11.0 | 0.00 | 0.00 | 0.00 | 30 | 1010.3 |
| 20260906014539 | 86 | 280 | 2.0 | 9.0 | 0.00 | 0.00 | 0.00 | 30 | 1010.1 |
| 20260906013048 | 87 | 266 | 3.0 | 8.0 | 0.00 | 0.00 | 0.00 | 31 | 1010.2 |
| 20260906011549 | 87 | 243 | 3.0 | 10.0 | 0.00 | 0.00 | 0.00 | 30 | 1010.2 |
| 20260906010040 | 87 | 290 | 6.0 | 12.0 | 0.00 | 0.00 | 0.00 | 31 | 1010.3 |
| 20260906004536 | 89 | 267 | 3.0 | 8.0 | 0.00 | 0.00 | 0.00 | 31 | 1010.2 |
| 20260906003037 | 89 | 256 | 2.0 | 10.0 | 0.00 | 0.00 | 0.00 | 31 | 1010.2 |
| 20260906001536 | 90 | 263 | 2.0 | 11.0 | 0.00 | 0.00 | 0.00 | 32 | 1010.0 |
| 20260906000049 | 91 | 304 | 3.0 | 8.0 | 0.00 | 0.00 | 0.00 | 31 | 1010.0 |
| 20260905234532 | 92 | 262 | 5.0 | 15.0 | 0.00 | 0.00 | 0.00 | 30 | 1009.9 |
| 20260905233033 | 93 | 208 | 3.0 | 11.0 | 0.00 | 0.00 | 0.00 | 29 | 1009.9 |
| 20260905231530 | 94 | 271 | 3.0 | 9.0 | 0.00 | 0.00 | 0.00 | 28 | 1009.9 |
| 20260905230028 | 94 | 303 | 5.0 | 12.0 | 0.00 | 0.00 | 0.00 | 27 | 1010.1 |
| 20260905224527 | 93 | 222 | 5.0 | 12.0 | 0.00 | 0.00 | 0.00 | 26 | 1010.2 |
| 20260905223026 | 94 | 234 | 3.0 | 9.0 | 0.00 | 0.00 | 0.00 | 24 | 1010.3 |
| 20260905221524 | 95 | 242 | 4.0 | 9.0 | 0.00 | 0.00 | 0.00 | 23 | 1010.4 |
| 20260905220022 | 95 | 284 | 3.0 | 10.0 | 0.00 | 0.00 | 0.00 | 24 | 1010.6 |
| 20260905214519 | 94 | 131 | 0.0 | 5.0 | 0.00 | 0.00 | 0.00 | 23 | 1010.8 |
| 20260905213018 | 94 | 277 | 2.0 | 7.0 | 0.00 | 0.00 | 0.00 | 22 | 1011.0 |
| 20260905211518 | 93 | 242 | 4.0 | 8.0 | 0.00 | 0.00 | 0.00 | 22 | 1011.1 |
| 20260905210016 | 94 | 160 | 2.0 | 8.0 | 0.00 | 0.00 | 0.00 | 22 | 1011.1 |
| 20260905204514 | 92 | 295 | 2.0 | 9.0 | 0.00 | 0.00 | 0.00 | 24 | 1011.2 |
| 20260905203013 | 92 | 245 | 2.0 | 7.0 | 0.00 | 0.00 | 0.00 | 23 | 1011.4 |
| 20260905201511 | 92 | 297 | 2.0 | 7.0 | 0.00 | 0.00 | 0.00 | 23 | 1011.7 |
| 20260905200006 | 92 | 270 | 1.0 | 8.0 | 0.00 | 0.00 | 0.00 | 23 | 1011.9 |